IT9IRS-1 Weather Reports


Display with metric or nautical units.
time (UTC)temp
F
wind
direction
speed
MPH
gust
MPH
rain 1hr
in
rain 24hr
in
rain mn
in
humidity
%
barometer
mb
20260901115216 89 180 12.0 17.0 0.00 0.00 0.00 61 1013.3
20260901114504 89 180 12.0 15.0 0.00 0.00 0.00 61 1013.3
20260901114003 89 180 12.0 17.0 0.00 0.00 0.00 61 1013.3
20260901113715 89 180 13.0 17.0 0.00 0.00 0.00 61 1013.3
20260901113003 90 189 13.0 15.0 0.00 0.00 0.00 60 1013.3
20260901112503 90 192 12.0 15.0 0.00 0.00 0.00 58 1013.3
20260901112003 90 183 12.0 15.0 0.00 0.00 0.00 57 1013.3
20260901111717 90 188 12.0 15.0 0.00 0.00 0.00 56 1013.3
20260901111003 90 219 10.0 17.0 0.00 0.00 0.00 55 1013.3
20260901110503 90 211 10.0 17.0 0.00 0.00 0.00 53 1013.3
20260901110003 90 199 11.0 14.0 0.00 0.00 0.00 56 1013.3
20260901105503 90 217 11.0 15.0 0.00 0.00 0.00 56 1013.3
20260901105003 89 203 12.0 17.0 0.00 0.00 0.00 56 1013.3
20260901104503 88 207 13.0 17.0 0.00 0.00 0.00 57 1013.3
20260901104003 89 236 11.0 15.0 0.00 0.00 0.00 58 1013.3
20260901103503 88 228 10.0 13.0 0.00 0.00 0.00 59 1013.3
20260901103003 88 202 11.0 18.0 0.00 0.00 0.00 60 1013.3
20260901102503 88 200 10.0 18.0 0.00 0.00 0.00 62 1013.3
20260901102003 87 190 9.0 16.0 0.00 0.00 0.00 64 1013.3
20260901101503 87 183 11.0 16.0 0.00 0.00 0.00 61 1013.3
20260901101003 87 180 11.0 16.0 0.00 0.00 0.00 60 1013.3
20260901100505 87 178 9.0 12.0 0.00 0.00 0.00 59 1013.3
20260901100004 88 173 9.0 14.0 0.00 0.00 0.00 55 1013.3
20260901095504 88 164 9.0 14.0 0.00 0.00 0.00 54 1013.3
20260901095004 89 156 8.0 12.0 0.00 0.00 0.00 53 1013.3
20260901094504 90 159 7.0 10.0 0.00 0.00 0.00 52 1013.3
20260901094218 90 152 5.0 8.0 0.00 0.00 0.00 52 1013.3
20260901093504 91 124 5.0 5.0 0.00 0.00 0.00 51 1013.3
20260901093214 91 74 6.0 13.0 0.00 0.00 0.00 50 1013.3
20260901092504 92 41 11.0 18.0 0.00 0.00 0.00 45 1013.3
20260901092004 92 43 9.0 18.0 0.00 0.00 0.00 45 1013.3
20260901091504 92 52 9.0 18.0 0.00 0.00 0.00 44 1013.3
20260901091004 92 74 8.0 15.0 0.00 0.00 0.00 46 1013.3
20260901090505 91 76 7.0 15.0 0.00 0.00 0.00 48 1013.3
20260901090004 91 54 7.0 15.0 0.00 0.00 0.00 47 1013.3
20260901085504 91 56 9.0 15.0 0.00 0.00 0.00 48 1013.3
20260901085004 91 59 11.0 15.0 0.00 0.00 0.00 48 1013.3
20260901084716 90 60 12.0 18.0 0.00 0.00 0.00 47 1013.3
20260901084004 90 64 11.0 18.0 0.00 0.00 0.00 47 1013.3
20260901083503 90 64 8.0 15.0 0.00 0.00 0.00 48 1013.3
20260901083004 90 53 7.0 11.0 0.00 0.00 0.00 48 1013.3
20260901082503 90 62 9.0 16.0 0.00 0.00 0.00 49 1013.3
20260901082216 90 62 9.0 16.0 0.00 0.00 0.00 49 1013.3
20260901081505 89 63 6.0 11.0 0.00 0.00 0.00 50 1012.3
20260901081003 89 71 7.0 11.0 0.00 0.00 0.00 50 1012.3
20260901080503 89 53 6.0 9.0 0.00 0.00 0.00 51 1012.3
20260901080003 89 29 7.0 12.0 0.00 0.00 0.00 53 1012.3
20260901075503 88 39 8.0 12.0 0.00 0.00 0.00 53 1012.3
20260901075213 88 39 9.0 14.0 0.00 0.00 0.00 53 1012.3
20260901074504 88 44 10.0 14.0 0.00 0.00 0.00 54 1012.3
20260901074004 87 39 10.0 12.0 0.00 0.00 0.00 56 1012.3
20260901073503 87 35 11.0 14.0 0.00 0.00 0.00 57 1012.3
20260901073216 87 32 10.0 14.0 0.00 0.00 0.00 57 1012.3
20260901072503 86 39 8.0 14.0 0.00 0.00 0.00 58 1012.3
20260901072003 86 48 9.0 14.0 0.00 0.00 0.00 61 1012.3
20260901071503 86 48 9.0 16.0 0.00 0.00 0.00 62 1012.3
20260901071003 86 35 8.0 16.0 0.00 0.00 0.00 63 1012.3
20260901070504 85 38 7.0 12.0 0.00 0.00 0.00 64 1012.3
20260901070003 85 52 7.0 12.0 0.00 0.00 0.00 66 1012.3
20260901065503 85 53 8.0 11.0 0.00 0.00 0.00 68 1012.3
20260901065003 84 39 10.0 16.0 0.00 0.00 0.00 69 1012.3
20260901064503 84 39 10.0 16.0 0.00 0.00 0.00 71 1012.3
20260901064003 84 35 8.0 14.0 0.00 0.00 0.00 73 1012.3
20260901063503 83 32 9.0 13.0 0.00 0.00 0.00 74 1012.3
20260901063003 83 32 9.0 15.0 0.00 0.00 0.00 75 1012.3
20260901062503 83 31 10.0 16.0 0.00 0.00 0.00 76 1012.3
20260901062004 83 13 10.0 16.0 0.00 0.00 0.00 76 1012.3
20260901061715 83 7 9.0 16.0 0.00 0.00 0.00 76 1012.3
20260901061004 82 19 11.0 20.0 0.00 0.00 0.00 77 1012.3
20260901060716 82 26 11.0 20.0 0.00 0.00 0.00 78 1012.3
20260901060214 82 30 11.0 20.0 0.00 0.00 0.00 80 1012.3
20260901055504 82 15 9.0 12.0 0.00 0.00 0.00 81 1012.3
20260901055004 81 12 10.0 15.0 0.00 0.00 0.00 82 1012.3
20260901054718 81 11 10.0 15.0 0.00 0.00 0.00 82 1012.3
20260901054004 81 10 7.0 10.0 0.00 0.00 0.00 83 1012.3
20260901053504 81 6 6.0 9.0 0.00 0.00 0.00 83 1012.3
20260901053004 80 360 5.0 9.0 0.00 0.00 0.00 84 1012.3
20260901052504 80 350 5.0 8.0 0.00 0.00 0.00 84 1012.3
20260901052004 80 348 5.0 9.0 0.00 0.00 0.00 84 1012.3
20260901051504 80 355 5.0 9.0 0.00 0.00 0.00 84 1012.3
20260901051004 80 5 5.0 8.0 0.00 0.00 0.00 84 1012.3
20260901050716 80 353 5.0 8.0 0.00 0.00 0.00 84 1012.3
20260901050004 79 351 3.0 5.0 0.00 0.00 0.00 84 1012.3
20260901045504 79 6 2.0 4.0 0.00 0.00 0.00 83 1012.3
20260901045004 79 6 3.0 5.0 0.00 0.00 0.00 83 1012.3
20260901044506 80 14 6.0 18.0 0.00 0.00 0.00 84 1012.3
20260901044004 80 19 6.0 18.0 0.00 0.00 0.00 84 1012.3
20260901043714 80 11 4.0 8.0 0.00 0.00 0.00 83 1012.3
20260901043003 80 30 7.0 13.0 0.00 0.00 0.00 83 1011.3
20260901042504 80 32 7.0 13.0 0.00 0.00 0.00 83 1011.3
20260901042004 80 24 8.0 17.0 0.00 0.00 0.00 83 1011.3
20260901041716 80 23 9.0 17.0 0.00 0.00 0.00 84 1011.3
20260901041004 80 26 9.0 12.0 0.00 0.00 0.00 84 1011.3
20260901040505 80 28 8.0 12.0 0.00 0.00 0.00 84 1011.3
20260901040004 79 16 8.0 17.0 0.00 0.00 0.00 84 1011.3
20260901035503 79 14 9.0 17.0 0.00 0.00 0.00 85 1011.3
20260901035004 79 16 9.0 17.0 0.00 0.00 0.00 85 1011.3
20260901034503 79 18 8.0 10.0 0.00 0.00 0.00 85 1011.3
20260901034003 79 17 7.0 10.0 0.00 0.00 0.00 86 1011.3
20260901033503 79 11 6.0 9.0 0.00 0.00 0.00 86 1011.3
20260901033004 78 17 7.0 12.0 0.00 0.00 0.00 87 1011.3
20260901032503 78 14 7.0 12.0 0.00 0.00 0.00 87 1011.3
20260901032003 78 25 7.0 10.0 0.00 0.00 0.00 87 1011.3
20260901031504 78 33 8.0 10.0 0.00 0.00 0.00 88 1011.3
20260901031215 78 23 8.0 10.0 0.00 0.00 0.00 88 1011.3
20260901030503 78 27 9.0 14.0 0.00 0.00 0.00 88 1011.3
20260901030003 78 33 9.0 14.0 0.00 0.00 0.00 88 1011.3
20260901025714 78 30 8.0 14.0 0.00 0.00 0.00 89 1011.3
20260901025003 77 25 6.0 10.0 0.00 0.00 0.00 89 1011.3
20260901024503 77 10 5.0 8.0 0.00 0.00 0.00 89 1011.3
20260901024003 77 3 6.0 9.0 0.00 0.00 0.00 90 1011.3
20260901023503 77 2 6.0 9.0 0.00 0.00 0.00 91 1011.3
20260901023003 76 2 6.0 8.0 0.00 0.00 0.00 91 1011.3
20260901022503 76 3 6.0 8.0 0.00 0.00 0.00 91 1011.3
20260901022003 75 360 6.0 6.0 0.00 0.00 0.00 91 1012.3
20260901021503 75 360 5.0 6.0 0.00 0.00 0.00 91 1012.3
20260901021003 75 360 5.0 5.0 0.00 0.00 0.00 91 1012.3
20260901020505 75 355 4.0 5.0 0.00 0.00 0.00 91 1012.3
20260901020216 75 348 4.0 5.0 0.00 0.00 0.00 91 1012.3
20260901015503 75 2 4.0 8.0 0.00 0.00 0.00 91 1012.3
20260901015004 75 24 5.0 8.0 0.00 0.00 0.00 91 1012.3
20260901014715 75 27 4.0 8.0 0.00 0.00 0.00 91 1012.3
20260901014004 75 354 4.0 5.0 0.00 0.00 0.00 90 1012.3
20260901013504 75 346 3.0 5.0 0.00 0.00 0.00 90 1012.3
20260901013214 75 352 3.0 5.0 0.00 0.00 0.00 90 1012.3
20260901012504 75 349 2.0 3.0 0.00 0.00 0.00 89 1012.3
20260901012215 75 342 1.0 2.0 0.00 0.00 0.00 89 1012.3
20260901011504 75 355 1.0 3.0 0.00 0.00 0.00 89 1012.3
20260901011004 75 2 3.0 4.0 0.00 0.00 0.00 89 1012.3
20260901010504 76 8 3.0 5.0 0.00 0.00 0.00 89 1013.3
20260901010004 76 338 3.0 5.0 0.00 0.00 0.00 88 1013.3
20260901005504 76 305 3.0 4.0 0.00 0.00 0.00 88 1013.3
20260901005004 76 307 3.0 5.0 0.00 0.00 0.00 88 1013.3
20260901004504 76 341 3.0 5.0 0.00 0.00 0.00 88 1013.3
20260901004004 76 348 3.0 5.0 0.00 0.00 0.00 88 1013.3
20260901003504 76 322 2.0 4.0 0.00 0.00 0.00 88 1013.3
20260901003004 76 315 2.0 4.0 0.00 0.00 0.00 88 1013.3
20260901002504 76 324 1.0 3.0 0.00 0.00 0.00 88 1013.3
20260901002216 76 12 1.0 4.0 0.00 0.00 0.00 88 1013.3
20260901001504 76 31 2.0 4.0 0.00 0.00 0.00 88 1013.3
20260901001217 76 15 2.0 2.0 0.00 0.00 0.00 88 1013.3
20260901000504 77 339 2.0 5.0 0.00 0.00 0.00 88 1013.3
20260901000004 77 353 4.0 5.0 0.00 0.00 0.00 89 1013.3
20260831235504 77 347 4.0 5.0 0.00 0.00 0.00 88 1013.3
20260831235004 77 310 4.0 5.0 0.00 0.00 0.00 87 1013.3
20260831234504 77 333 5.0 8.0 0.00 0.00 0.00 88 1013.3
20260831234215 77 5 5.0 11.0 0.00 0.00 0.00 88 1013.3
20260831233503 77 8 7.0 11.0 0.00 0.00 0.00 87 1014.3
20260831233004 78 348 5.0 8.0 0.00 0.00 0.00 87 1014.3
20260831232503 78 335 3.0 7.0 0.00 0.00 0.00 86 1014.3
20260831232003 78 338 3.0 7.0 0.00 0.00 0.00 86 1014.3
20260831231504 78 336 4.0 6.0 0.00 0.00 0.00 85 1014.3
20260831231003 78 321 5.0 8.0 0.00 0.00 0.00 85 1014.3
20260831230503 78 316 6.0 8.0 0.00 0.00 0.00 84 1014.3
20260831230004 78 326 5.0 7.0 0.00 0.00 0.00 84 1014.3
20260831225503 78 325 4.0 8.0 0.00 0.00 0.00 84 1014.3
20260831225214 78 329 5.0 8.0 0.00 0.00 0.00 82 1014.3
20260831224503 77 327 4.0 5.0 0.00 0.00 0.00 81 1013.3
20260831224003 77 350 4.0 7.0 0.00 0.00 0.00 81 1013.3
20260831223504 77 347 5.0 7.0 0.00 0.00 0.00 80 1014.3
20260831223003 77 321 6.0 8.0 0.00 0.00 0.00 78 1014.3
20260831222503 78 315 7.0 8.0 0.00 0.00 0.00 76 1014.3
20260831222005 78 315 6.0 8.0 0.00 0.00 0.00 76 1014.3
20260831221503 78 317 5.0 7.0 0.00 0.00 0.00 76 1014.3
20260831221213 78 317 5.0 7.0 0.00 0.00 0.00 76 1014.3
20260831220716 78 324 5.0 8.0 0.00 0.00 0.00 76 1014.3
20260831220003 77 319 4.0 7.0 0.00 0.00 0.00 75 1014.3
20260831215503 77 321 4.0 8.0 0.00 0.00 0.00 75 1014.3
20260831215004 78 337 5.0 8.0 0.00 0.00 0.00 73 1014.3
20260831214713 78 334 5.0 8.0 0.00 0.00 0.00 73 1014.3
20260831214003 78 313 2.0 6.0 0.00 0.00 0.00 72 1014.3
20260831213504 78 283 1.0 3.0 0.00 0.00 0.00 73 1014.3
20260831213004 78 270 1.0 3.0 0.00 0.00 0.00 73 1014.3
20260831212504 78 270 3.0 5.0 0.00 0.00 0.00 73 1014.3
20260831212004 78 270 4.0 6.0 0.00 0.00 0.00 73 1013.3
20260831211504 78 270 5.0 6.0 0.00 0.00 0.00 73 1013.3
20260831211004 78 270 4.0 6.0 0.00 0.00 0.00 72 1013.3
20260831210504 78 284 3.0 4.0 0.00 0.00 0.00 70 1013.3
20260831210005 79 308 4.0 6.0 0.00 0.00 0.00 70 1013.3
20260831205504 79 318 4.0 6.0 0.00 0.00 0.00 70 1013.3
20260831205004 79 331 3.0 5.0 0.00 0.00 0.00 70 1013.3
20260831204504 79 325 3.0 4.0 0.00 0.00 0.00 69 1013.3
20260831204004 79 317 3.0 5.0 0.00 0.00 0.00 69 1013.3
20260831203504 80 316 4.0 5.0 0.00 0.00 0.00 68 1013.3
20260831203005 80 316 3.0 5.0 0.00 0.00 0.00 68 1013.3
20260831202504 80 320 4.0 6.0 0.00 0.00 0.00 68 1013.3
20260831202004 80 315 5.0 6.0 0.00 0.00 0.00 68 1012.3
20260831201716 80 308 5.0 6.0 0.00 0.00 0.00 68 1012.3
20260831201004 80 309 4.0 5.0 0.00 0.00 0.00 68 1012.3
20260831200504 81 318 3.0 5.0 0.00 0.00 0.00 68 1012.3
20260831200004 81 306 3.0 4.0 0.00 0.00 0.00 68 1012.3
20260831195504 81 307 4.0 7.0 0.00 0.00 0.00 68 1012.3
20260831195005 81 314 5.0 8.0 0.00 0.00 0.00 68 1012.3
20260831194504 81 318 5.0 8.0 0.00 0.00 0.00 68 1012.3
20260831194004 81 315 4.0 8.0 0.00 0.00 0.00 68 1012.3
20260831193504 81 311 3.0 6.0 0.00 0.00 0.00 68 1012.3
20260831193004 81 327 2.0 4.0 0.00 0.00 0.00 68 1012.3
20260831192504 82 331 2.0 4.0 0.00 0.00 0.00 67 1012.3
20260831192004 82 328 3.0 4.0 0.00 0.00 0.00 66 1011.3
20260831191505 82 324 3.0 4.0 0.00 0.00 0.00 66 1011.3
20260831191004 83 314 2.0 4.0 0.00 0.00 0.00 65 1011.3
20260831190504 83 338 2.0 4.0 0.00 0.00 0.00 65 1011.3
20260831190003 83 19 2.0 4.0 0.00 0.00 0.00 66 1011.3
20260831185503 83 21 2.0 4.0 0.00 0.00 0.00 66 1011.3
20260831185003 84 18 3.0 7.0 0.00 0.00 0.00 66 1011.3
20260831184505 84 18 2.0 7.0 0.00 0.00 0.00 63 1011.3
20260831184003 84 17 2.0 5.0 0.00 0.00 0.00 60 1011.3
20260831183503 84 13 2.0 5.0 0.00 0.00 0.00 59 1011.3
20260831183004 85 13 2.0 5.0 0.00 0.00 0.00 54 1011.3
20260831182503 85 10 2.0 3.0 0.00 0.00 0.00 51 1011.3
20260831182003 86 6 1.0 3.0 0.00 0.00 0.00 46 1010.3
20260831181712 86 5 1.0 4.0 0.00 0.00 0.00 45 1010.3
20260831181003 87 2 2.0 4.0 0.00 0.00 0.00 42 1010.3
20260831180503 87 349 4.0 9.0 0.00 0.00 0.00 41 1010.3
20260831180005 88 329 6.0 9.0 0.00 0.00 0.00 42 1010.3
20260831175503 88 318 6.0 9.0 0.00 0.00 0.00 40 1010.3
20260831175003 89 316 5.0 9.0 0.00 0.00 0.00 39 1010.3
20260831174503 89 321 5.0 7.0 0.00 0.00 0.00 39 1010.3
20260831174003 89 325 7.0 9.0 0.00 0.00 0.00 37 1010.3
20260831173503 90 325 7.0 10.0 0.00 0.00 0.00 37 1010.3
20260831173003 90 327 7.0 10.0 0.00 0.00 0.00 37 1010.3
20260831172504 91 331 7.0 12.0 0.00 0.00 0.00 37 1010.3
20260831172215 91 334 7.0 12.0 0.00 0.00 0.00 36 1010.3
20260831171505 91 339 6.0 10.0 0.00 0.00 0.00 38 1010.3
20260831171005 92 321 7.0 13.0 0.00 0.00 0.00 38 1010.3
20260831170714 92 321 7.0 13.0 0.00 0.00 0.00 38 1010.3
20260831170004 92 323 8.0 11.0 0.00 0.00 0.00 39 1010.3
20260831165505 92 324 10.0 14.0 0.00 0.00 0.00 38 1010.3
20260831165004 93 323 11.0 14.0 0.00 0.00 0.00 37 1010.3
20260831164504 93 317 10.0 17.0 0.00 0.00 0.00 37 1010.3
20260831164219 93 320 9.0 17.0 0.00 0.00 0.00 37 1010.3
20260831163504 93 330 9.0 15.0 0.00 0.00 0.00 39 1010.3
20260831163004 94 333 9.0 15.0 0.00 0.00 0.00 38 1010.3
20260831162718 94 331 9.0 14.0 0.00 0.00 0.00 38 1010.3
20260831162004 94 321 11.0 15.0 0.00 0.00 0.00 36 1010.3
20260831161504 94 317 14.0 19.0 0.00 0.00 0.00 36 1010.3
20260831161004 94 320 15.0 19.0 0.00 0.00 0.00 34 1010.3
20260831160714 94 321 14.0 17.0 0.00 0.00 0.00 34 1010.3
20260831160004 94 305 11.0 17.0 0.00 0.00 0.00 34 1010.3
20260831155504 94 312 10.0 17.0 0.00 0.00 0.00 37 1010.3
20260831155004 94 335 9.0 15.0 0.00 0.00 0.00 37 1011.3
20260831154504 94 317 9.0 14.0 0.00 0.00 0.00 38 1011.3
20260831154004 94 330 10.0 14.0 0.00 0.00 0.00 38 1011.3
20260831153504 95 342 12.0 19.0 0.00 0.00 0.00 37 1011.3
20260831153003 95 323 15.0 22.0 0.00 0.00 0.00 36 1011.3
20260831152504 95 327 15.0 22.0 0.00 0.00 0.00 36 1011.3
20260831152216 95 332 14.0 22.0 0.00 0.00 0.00 35 1011.3
20260831151504 96 322 14.0 23.0 0.00 0.00 0.00 35 1011.3
20260831151004 96 317 16.0 23.0 0.00 0.00 0.00 37 1011.3
20260831150504 96 312 15.0 18.0 0.00 0.00 0.00 37 1011.3
20260831150004 96 312 13.0 18.0 0.00 0.00 0.00 38 1011.3
20260831145503 96 318 14.0 24.0 0.00 0.00 0.00 37 1011.3
20260831145004 96 312 17.0 24.0 0.00 0.00 0.00 38 1011.3
20260831144503 96 311 18.0 24.0 0.00 0.00 0.00 37 1011.3
20260831144003 96 307 16.0 24.0 0.00 0.00 0.00 40 1011.3
20260831143503 96 295 14.0 19.0 0.00 0.00 0.00 40 1011.3
20260831143004 96 307 16.0 19.0 0.00 0.00 0.00 42 1011.3
20260831142503 96 307 16.0 20.0 0.00 0.00 0.00 45 1011.3
20260831142003 95 295 15.0 20.0 0.00 0.00 0.00 46 1011.3
20260831141503 95 284 16.0 19.0 0.00 0.00 0.00 48 1011.3
20260831141213 95 281 16.0 18.0 0.00 0.00 0.00 51 1011.3
20260831140503 95 287 16.0 26.0 0.00 0.00 0.00 50 1011.3
20260831140003 94 293 16.0 26.0 0.00 0.00 0.00 51 1011.3
20260831135504 94 299 17.0 26.0 0.00 0.00 0.00 51 1011.3
20260831135003 94 298 21.0 26.0 0.00 0.00 0.00 52 1011.3
20260831134713 94 293 19.0 25.0 0.00 0.00 0.00 52 1011.3
20260831134216 94 290 19.0 24.0 0.00 0.00 0.00 53 1011.3
20260831133714 94 296 18.0 24.0 0.00 0.00 0.00 52 1011.3
20260831133217 95 292 17.0 23.0 0.00 0.00 0.00 52 1011.3
20260831132503 95 286 17.0 23.0 0.00 0.00 0.00 52 1011.3
20260831132004 95 286 18.0 23.0 0.00 0.00 0.00 52 1011.3
20260831131504 95 294 20.0 23.0 0.00 0.00 0.00 50 1011.3
20260831131004 95 286 17.0 23.0 0.00 0.00 0.00 48 1011.3
20260831130504 95 287 14.0 24.0 0.00 0.00 0.00 50 1011.3
20260831130004 95 298 15.0 24.0 0.00 0.00 0.00 50 1011.3
20260831125504 95 291 17.0 24.0 0.00 0.00 0.00 50 1011.3
20260831125004 95 280 18.0 24.0 0.00 0.00 0.00 50 1011.3
20260831124504 95 287 16.0 22.0 0.00 0.00 0.00 50 1011.3
20260831124004 95 285 16.0 22.0 0.00 0.00 0.00 49 1011.3
20260831123505 95 287 16.0 23.0 0.00 0.00 0.00 50 1011.3
20260831123217 95 290 16.0 23.0 0.00 0.00 0.00 50 1011.3
20260831122715 95 292 15.0 23.0 0.00 0.00 0.00 52 1011.3
20260831122004 94 284 17.0 27.0 0.00 0.00 0.00 53 1011.3
20260831121504 94 285 19.0 27.0 0.00 0.00 0.00 53 1011.3
20260831121005 94 276 19.0 24.0 0.00 0.00 0.00 53 1011.3
20260831120504 94 271 18.0 23.0 0.00 0.00 0.00 52 1011.3
20260831120004 95 275 16.0 20.0 0.00 0.00 0.00 53 1011.3
20260831115504 95 281 14.0 18.0 0.00 0.00 0.00 55 1011.3